FALCON HEAVY R/B

基本信息
目录编号:
54221
目录名称:
FALCON HEAVY R/B
国际标识:
2022-144C
轨道中心:
EARTH
物体状态:
在轨
发射日期:
2022-11-01 UTC
国别:
美国 (US)
轨道信息
数据来源: 国际轨道数据
星历时间: 2026-07-13T03:55:34+0800
半长轴: 42782.5km
偏心率: 0.0055164
轨道倾角: 6.043°
近地点辐角: 216.713°
升交点赤经: 62.952°
平近点角: 142.826°
近地点: 36168.357km
远地点: 36640.369km
周期: 1467.773分钟
每日圈数: 0.981078
详细信息
发射场:
AFETR
轨道高度:
HEO
数据来源:
AOE Integration Group
参考系:
TEME
时间系统:
UTC
历元类型:
SGP4
2D轨道图
3D轨道图
轨道高度分析图
轨道倾角分析图
轨道综合分析图
查看轨道综合分析图